Back to catalog

STARLINK-3072

AliveCommunicationsVLEO
NORAD 49153·PAYLOAD·🇺🇸 United States

Launched Sep 14, 2021 from Vandenberg Space Force Base

Loading…

Next Passes (next 24 hours)

TLE

FreshSource: CelesTrak SupGP

Epoch: Sep 14, 2026, 21:34 UTC

1 49153C 21082Z   26257.89909722 -.00019376  00000+0 -16245-2 0  2577
2 49153  70.0001 137.3924 0002964 271.0649  91.0143 14.98324686    11

Track STARLINK-3072 in real time with AllMySat

Download on the App Store